Home > Weather > Riyadh > Past weeks

Flag for Saudi Arabia Past Weather in Riyadh, Saudi Arabia — Yesterday and Last 2 Weeks

Now
108 °F

Sunny.


Feels Like: 101 °F
Forecast: 85 / 111 °F
Wind: 10 mph from Northeast

Location: King Khaled International Airport

Current Time: Jul 28, 2016 at 5:39:00 PM

Latest Report: Jul 28, 2016 at 5:00 PM


Visibility: 10 mi

Pressure: 29.62 "Hg (27.78 "Hg at 590m altitude)

Humidity: 8%

Dew Point: 34 °F

Location of RiyadhLocation

Past Weather in Riyadh — Graph

°F

Riyadh Temperature Yesterday

Maximum temperature yesterday: 111 °F (at 3:00 PM)
Minimum temperature yesterday: 88 °F (at 5:00 AM)
Average temperature yesterday: 100 °F

High & Low Weather Summary for the Past Weeks

 TemperatureHumidityPressure
High115 °F (Jul 22, 2:00 PM)35% (Jul 28, 5:00 AM)29.74 "Hg (Jul 28, 5:00 AM)
Low77 °F (Jul 25, 6:00 AM)4% (Jul 14, 12:00 PM)29.56 "Hg (Jul 24, 5:00 PM)
Average100 °F11%29.67 "Hg
* Reported Jul 13 4:00 PM — Jul 28 4:00 PM, Riyadh, Weather by CustomWeather, © 2016

Note: Actual official high and low records may vary slightly from our data, if they occured in-between our weather recording intervals... More about our weather records

Advertising

Riyadh Weather History for the Previous 24 Hours

Scroll right to see more
 ConditionsComfort  
Time TempWeatherWind HumidityBarometerVisibility
4:00 PM
Thu, Jul 28
109 °FSunny.7 mph8%29.62 "Hg10 mi
3:00 PM111 °FSunny.6 mph6%29.65 "Hg10 mi
2:00 PM111 °FSunny.2 mph7%29.65 "Hg10 mi
1:00 PM109 °FSunny.5 mph7%29.68 "Hg10 mi
12:00 PM109 °FSunny.6 mph7%29.68 "Hg10 mi
11:00 AM108 °FSunny.6 mph10%29.71 "Hg10 mi
10:00 AM104 °FSunny.5 mph12%29.74 "Hg10 mi
9:00 AM100 °FSunny.3 mph17%29.74 "Hg10 mi
8:00 AM95 °FSunny.5 mph22%29.74 "Hg10 mi
7:00 AM88 °FSunny.6 mph25%29.71 "Hg10 mi
6:00 AM86 °FSunny.5 mph33%29.71 "Hg10 mi
5:00 AM84 °FClear.No wind35%29.68 "Hg10 mi
4:00 AM88 °FClear.No wind33%29.65 "Hg10 mi
3:00 AM91 °FClear.3 mph30%29.65 "Hg10 mi
2:00 AM90 °FClear.No wind26%29.65 "Hg10 mi
1:00 AM93 °FClear.6 mph23%29.68 "Hg10 mi
12:00 AM95 °FClear.7 mph18%29.68 "Hg10 mi
11:00 PM
Wed, Jul 27
97 °FClear.3 mph14%29.68 "Hg10 mi
10:00 PM99 °FClear.6 mph14%29.68 "Hg10 mi
9:00 PM99 °FClear.6 mph14%29.68 "Hg10 mi
8:00 PM102 °FClear.7 mph11%29.65 "Hg10 mi
7:00 PM104 °FClear.9 mph9%29.65 "Hg10 mi
6:00 PM108 °FSunny.9 mph8%29.65 "Hg10 mi
5:00 PM109 °FSunny.12 mph8%29.62 "Hg10 mi
Weather by CustomWeather, © 2016

See weather overviewHow to use our weather pages